255  
ASUS44 KMOB 221912  
RWRMOB  
REGIONAL WEATHER ROUNDUP  
NATIONAL WEATHER SERVICE MOBILE AL  
100 PM CST WED NOV 22 2017  
 
NOTE: "FAIR" INDICATES FEW OR NO CLOUDS BELOW 12,000 FEET WITH NO  
SIGNIFICANT WEATHER AND/OR S TO VISIBILITY
.  
 
* THESE STATIONS ARE PART OF THE UNIVERSITY OF SOUTH ALABAMA  
MESONET AND ARE NOT UNDER NWS OR FAA QUALITY CONTROL.
 
 
ALZ061>064-222000-  
COASTAL ALABAMA  
 
CITY SKY/WX TMP DP RH WIND PRES REMARKS
 
MOBILE REG APT CLOUDY 64 38 38 N17G26 30.06F  
BROOKLEY FIELD MOSUNNY 65 40 39 N17 30.06F  
USA CAMPUS* NOT AVBL  
DOG RIVER* NOT AVBL  
 
 
CITY SKY/WX TMP DP RH WIND PRES REMARKS
 
GULF SHORES CLOUDY 64 41 42 N13G24 30.01F  
 

 
 
ALZ051>060-222000-  
INTERIOR SOUTHWEST AND SOUTH CENTRAL ALABAMA  
 
CITY SKY/WX TMP DP RH WIND PRES REMARKS
 
GREENVILLE MOSUNNY 65 36 34 N12 30.05F  
EVERGREEN NOT AVBL  
ATMORE* N/A N/A N/A N/A N15 N/A  
ANDALUSIA/OPP MOSUNNY 71 42 35 NE9 30.02F  
ANDALUSIA* N/A 66 41 39 NW6 30.02F  
FLORALA APT PTSUNNY 69 49 48 N12 30.03F  
FLORALA* N/A 68 50 52 NW8 30.70F  
 

 
 
FLZ001>006-222000-  
WESTERN FLORIDA PANHANDLE  
 
CITY SKY/WX TMP DP RH WIND PRES REMARKS
 
PENSACOLA CLOUDY 68 45 43 N13 30.01F  
NAS PENSACOLA CLOUDY 69 44 40 N13 30.00F  
MILTON PTSUNNY 67 48 50 VRB5 30.02F  
WHTNG S FIELD PTSUNNY 70 43 37 N15 30.01F  
 
 
CITY SKY/WX TMP DP RH WIND PRES REMARKS
 
JAY* N/A 64 37 36 VRB10 30.03F  
DUKE FIELD PTSUNNY 69 51 53 N12 29.99F  
CRESTVIEW CLOUDY 70 51 51 N9 30.02F  
VALPARAISO PTSUNNY 69 53 57 N15 29.98F  
DESTIN CLOUDY 71 55 56 N8 29.98F  
 

 
 
MSZ076-079-222000-  
INTERIOR SOUTHEAST MISSISSIPPI  
 
CITY SKY/WX TMP DP RH WIND PRES REMARKS
 
LEAKESVILLE* N/A 63 41 45 E10 30.10F  
AGRICOLA* N/A 63 39 42 NE9 30.06F  
 

 
 
MARINE OBSERVATIONS  
 
STATION/POSITION TIME TEMP WIND PRES WAVE
 
AIR SEA DIR/SP/G HT/PER  
(UTC) (F) (DEG/KT/KT) (MB) (FT/S)  
PASCAGOULA 1842 63 360/ 16/ 21 1016.8F  
PETIT BOIS ISLND 1842 63 10/ 16/ 21 1017.6F  
GRAND BAY 1730 61 20/ 13 1019.0F  
KATRINA CUT 1830 61 10/ 19 1016.9F  
CEDAR POINT 1830 61 20/ 15 1016.6F  
E DAUPHIN ISLAND 1800 59 360/ 20/ 25 1017.5F  
MIDDLE BAY LIGHT 1830 60 360/ 22 1017.3F  
USCG MOBILE BAY 1842 62 65 360/ 11/ 17 1017.7F  
STATE DOCKS 1842 64 65 1017.6F  
MEAHER PARK 1830 63 360/ 9 1017.3F  
WEEKS BAY 1745 63 1018.0F  
FORT MORGAN 1842 60 20/ 22/ 25 N/A  
12 S ORANGE BCH NOT AVBL  
PENSACOLA BAY 1842 67 63 1016.1F  
64 S DAUPHIN ISL 1850 67 78 20/ 19/ 23 1015.9F 5/ 6  
67 S FORT MORGAN 1830 67 30/ 17 1015.2F  
 

 
 
SELECTED LOCATIONS ACROSS THE REGION  
 
CITY SKY/WX TMP DP RH WIND PRES REMARKS
 
NEW ORLEANS MOSUNNY 66 45 46 N12 30.08F  
GULFPORT MOSUNNY 66 41 40 N20G26 30.05F  
PASCAGOULA AP CLOUDY 67 38 34 N17G24 30.04F  
PASCAGOULA* N/A 64 37 36 N12 N/A  
HATTIESBURG SUNNY 64 43 46 N15G21 30.10F  
LAUREL SUNNY 63 42 46 N16G22 30.11F  
MERIDIAN SUNNY 62 39 42 N15 30.13F  
JACKSON SUNNY 61 36 39 N14 30.16F  
MONTGOMERY CLOUDY 64 38 38 N9 30.07F  
TROY PTSUNNY 66 40 38 NE9 30.05F  
ASHFORD* N/A 66 41 39 NW6 30.02F  
DOTHAN PTSUNNY 70 55 59 VRB7 30.04F  
PANAMA CITY CLOUDY 72 59 63 N13 29.96F  
 

 
 
 
 
CLICK HERE TO GO TO PREVIOUS BULLETINS.

The Nexlab AL Page
The Nexlab FL Page
The Nexlab MS Page Main Text Page